Location: Aboncourt
(47.7710°N, 5.9826°E)
Time: 03:29:28
(UTC+00:00)

GEOS 3 Rocket - Pass Details

Date: 05 July 2020
Orbit: 771 x 848 km, 115.0° (Epoch: 03 August)

Event Time Altitude Azimuth Distance (km) Brightness Sun altitude
Rises 20:55:58 0° 40° (NE) 3,411 7.0 -10.4°
Reaches altitude 10° 20:58:17 10° 41° (NE) 2,476 6.3 -10.7°
Maximum altitude 21:03:43 83° 130° (SE) 861 3.7 -11.2°
Drops below altitude 10° 21:09:07 10° 218° (SW) 2,462 6.0 -11.8°
Sets 21:11:25 0° 219° (SW) 3,390 6.7 -12.0°
